Lexington Weather

Lexington, Massachusetts, USA

44°F
5/12/2021 4:08am 
  • Lexington Conditions: Clear
  • Temperature: 44.4°F / 6.9°CColder 0.9°F than last hour.
  • Dew Point: 32.5°FIncreased 0.7°Fsince last hour.
  • Relative Humidity: 63%Increased 4.0% since last hour.
  • Wind: Wind from ESE ESE Calm, 10-min avg: 1 mph, gust: 7 mph
  • Barometer: 29.92 in Steady
  • Visibility: 10 miles
  • Rain Today: 0.00 in
  •   

Regional Weather Roundup
for Boston / Norton, MA

        
000
ASUS41 KBOX 120604
RWRBOX

REGIONAL WEATHER ROUNDUP
NATIONAL WEATHER SERVICE BOSTON/NORTON MA
200 AM EDT WED MAY 12 2021

NOTE:  "FAIR" INDICATES FEW OR NO CLOUDS BELOW 12,000 FEET WITH NO 
SIGNIFICANT WEATHER AND/OR OBSTRUCTIONS TO VISIBILITY.

MAZALL-120700-
EASTERN MASSACHUSETTS
  
CITY           SKY/WX    TMP DP  RH WIND       PRES   REMARKS
BOSTON         CLEAR     51  26  37 W12       29.98S                  
6HR MIN TEMP:  51; 6HR MAX TEMP:  60;                                

BEVERLY        CLEAR     48  26  42 W8        29.95S                  
LAWRENCE       PTCLDY    47  27  45 W9        29.97S                  
BEDFORD        CLEAR     46  27  47 W6        29.97S                  
BLUE HILL        N/A     44  26  49 W14       29.96S                  
NORWOOD        CLEAR     46  27  47 W8        29.99S                  
MARSHFIELD     CLEAR     48  28  46 VRB7      29.98F                  
PLYMOUTH       CLEAR     47  26  44 W8        29.98F                  
TAUNTON        CLEAR     48  26  42 VRB3      30.00F                  
NEW BEDFORD    PTCLDY    49  26  41 W12       30.00F                  
$$

MAZALL-120700-
CAPE COD AND THE ISLANDS
  
CITY           SKY/WX    TMP DP  RH WIND       PRES   REMARKS
FALMOUTH       NOT AVBL                                               
HYANNIS        PTCLDY    50  26  39 W7        29.97S                  
CHATHAM        PTCLDY    50  28  42 NW8G21    29.98F                  
PROVINCETOWN   CLEAR     49  34  56 W14       29.98S                  
NANTUCKET      CLOUDY    53  30  41 NW17G25   29.99S                  
MARTHAS VNYRD  MOCLDY    51  29  42 NW12G17   30.01S                  
$$
 
MAZALL-120700-
CENTRAL AND WESTERN MASSACHUSETTS
  
CITY           SKY/WX    TMP DP  RH WIND       PRES   REMARKS
WORCESTER      CLEAR     44  27  51 W15       29.98S                  
6HR MIN TEMP:  44; 6HR MAX TEMP:  52;                                

FITCHBURG      CLEAR     46  28  49 W6        29.98S                  
ORANGE         PTCLDY    45  29  53 W8        30.00F                  
SPRINGFIELD    CLEAR     46  29  51 NW14      30.02F                  
WESTFIELD      CLEAR     47  30  51 VRB6      30.03F                  
NORTH ADAMS    CLOUDY    45  30  55 W15       30.03F                  
PITTSFIELD     MOCLDY    41  30  65 W14G21    30.02F                  
$$
 
RIZALL-120700-
RHODE ISLAND
  
CITY           SKY/WX    TMP DP  RH WIND       PRES   REMARKS
PROVIDENCE     PTCLDY    48  27  44 W6        30.02F                  
6HR MIN TEMP:  48; 6HR MAX TEMP:  59;                                

NEWPORT        PTCLDY    48  29  47 NW10      30.01F                  
BLOCK ISLAND   MOCLDY    48  30  49 NW13G21   30.05S                  
SMITHFIELD     CLEAR     45  28  51 W12       30.01F                  
WESTERLY       MOCLDY    47  27  45 VRB6      30.04S                  
$$
 
CTZALL-120700-
CONNECTICUT
  
CITY           SKY/WX    TMP DP  RH WIND       PRES   REMARKS
BRADLEY INTL   PTCLDY    46  29  51 NW9       30.04S                  
6HR MIN TEMP:  46; 6HR MAX TEMP:  54;                                

HARTFORD       CLEAR     49  28  44 NW8       30.06F                  
BRIDGEPORT     PTCLDY    48  31  51 CALM      30.08S                  
DANBURY        PTCLDY    48  27  44 CALM      30.09F                  
GROTON         MOCLDY    49  29  46 NW13G20   30.04F                  
NEW HAVEN      PTCLDY    49  33  54 NW6       30.08S                  
CHESTER        FAIR      46  28  49 NW8       30.06S                  
MERIDEN        PTCLDY    38  32  79 CALM      30.08S                  
WILLIMANTIC    CLEAR     46  28  49 W5        30.04F                  
OXFORD         PTCLDY    41  31  67 SW3       30.08S                  
$$

MEZ002-015-021-024-NHZ003-005-008-011-012-014-VTZ005-008-120700-
NORTHERN NEW ENGLAND
  
CITY           SKY/WX    TMP DP  RH WIND       PRES   REMARKS
PORTLAND ME    CLEAR     44  32  62 W6        29.90S                  
6HR MIN TEMP:  43; 6HR MAX TEMP:  54;                                

BANGOR ME      CLOUDY    44  39  82 W5        29.81F                  
CONCORD NH     CLEAR     43  26  51 SW6       29.94F                  
MANCHESTER NH  PTCLDY    49  25  39 W7        29.94S                  
NASHUA NH      CLEAR     46  27  47 SW5       29.97S                  
PORTSMOUTH NH  MOCLDY    48  24  38 W6        29.94S                  
JAFFREY NH     CLEAR     43  27  53 SW6       29.97S                  
KEENE NH       PTCLDY    40  30  67 S3        29.99F                  
BURLINGTON VT  LGT RAIN  44  38  79 W7        29.98S                  
MT. WASHINGTON NOT AVBL                                               
$$

NYZ052-076-120700-
EASTERN NEW YORK
  
CITY           SKY/WX    TMP DP  RH WIND       PRES   REMARKS
ALBANY         MOCLDY    43  32  65 W12G20    30.06F                  
6HR MIN TEMP:  40; 6HR MAX TEMP:  48;                                

NEW YORK CITY  MOCLDY    52  29  41 NW23G30   30.10S                  
6HR MIN TEMP:  52; 6HR MAX TEMP:  60;                                

$$
 
ANZALL-120700-
MARINE OBSERVATIONS
  
STATION/POSITION TIME  TEMP    WIND        PRES    VSBY  WAVE
                       AIR SEA DIR/SP/G                  HT/PER
                 (UTC) (F)     (DEG/KT/KT) (MB)    (MI)  (FT/S)
BOSTON BUOY      0540   50 49  270/ 17/ 21 1014.8R
BUZZARDS BAY     0500          320/ 19/ 21 1017.4R
NANTUCKET SOUND  0540      53                N/A
MASS BAY-STELLWA 0504   51     280/ 16/ 17 1012.9R  1 7/8  2/ 4
ISLE OF SHOALS   0500   50     280/ 17/ 18 1013.0R
S OF BLOCK IS    0526      50                N/A           4/ 8
$$

......................KEY.........................
  SKY/WX - SKY CONDITION/PRESENT WEATHER
  TMP    - TEMPERATURE IN FAHRENHEIT
  DWPT   - DEWPOINT IN FAHRENHEIT
  RH     - RELATIVE HUMIDITY IN PERCENT
  WIND   - DIRECTION AND SPEED IN MPH
  PRES   - MEAN SEA LEVEL PRESSURE IN INCHES OF HG
  WCI    - WIND CHILL INDEX
  VSB    - VISIBILITY IN MILES
  HX     - HEAT INDEX
  TC     - TEMPERATURE IN CELSIUS
  VRB    - VARIABLE WIND DIRECTION
  N/A    - NOT AVAILABLE
  
      

Other recent Regional Weather Roundups

Wed May 12, 3:04am

Wed May 12, 1:04am

Wed May 12, 12:05am

Tue May 11, 11:05pm

Tue May 11, 10:04pm

Tue May 11, 9:05pm

Tue May 11, 8:05pm

Tue May 11, 7:04pm

Tue May 11, 6:04pm

Tue May 11, 5:04pm

Tue May 11, 4:05pm

Tue May 11, 3:04pm

Tue May 11, 2:05pm

Tue May 11, 1:04pm

Tue May 11, 12:05pm

Tue May 11, 11:05am

Tue May 11, 10:04am

Tue May 11, 9:04am

Tue May 11, 8:04am

Tue May 11, 7:05am

Tue May 11, 6:04am

Tue May 11, 5:04am

Tue May 11, 4:04am

Tue May 11, 3:04am

Tue May 11, 2:04am

Tue May 11, 1:04am

Tue May 11, 12:04am

Mon May 10, 11:04pm

Mon May 10, 10:04pm

Mon May 10, 9:05pm

Mon May 10, 8:04pm

Mon May 10, 7:05pm

Mon May 10, 6:04pm

Mon May 10, 5:04pm

Mon May 10, 4:04pm

Mon May 10, 3:04pm

Mon May 10, 2:04pm

Mon May 10, 1:04pm

Mon May 10, 12:04pm

Mon May 10, 11:05am

Mon May 10, 10:04am

Mon May 10, 9:04am

Mon May 10, 8:04am

Mon May 10, 7:04am

Mon May 10, 6:04am

Mon May 10, 5:05am

Mon May 10, 4:04am

Mon May 10, 3:04am

Mon May 10, 2:04am

Mon May 10, 1:04am

Mon May 10, 12:04am

Sun May 9, 11:04pm

Sun May 9, 10:04pm

Sun May 9, 9:04pm

Sun May 9, 8:04pm

Sun May 9, 7:05pm

Sun May 9, 6:04pm

Sun May 9, 5:04pm

Sun May 9, 4:04pm

Sun May 9, 3:04pm

Sun May 9, 2:04pm

Sun May 9, 1:05pm

Sun May 9, 12:04pm

Sun May 9, 11:05am

Sun May 9, 10:04am

Sun May 9, 9:04am

Sun May 9, 8:04am

Sun May 9, 7:04am

Sun May 9, 6:04am

Sun May 9, 5:04am

Sun May 9, 4:04am

Sun May 9, 3:04am

Sun May 9, 2:04am

Sun May 9, 1:05am

Sun May 9, 12:04am

Sat May 8, 11:05pm

Sat May 8, 10:04pm

Sat May 8, 9:05pm

Sat May 8, 8:04pm

Sat May 8, 7:04pm

Sat May 8, 6:04pm

Sat May 8, 5:05pm

Sat May 8, 4:04pm

Sat May 8, 3:05pm

Sat May 8, 2:05pm

Sat May 8, 1:05pm

Sat May 8, 12:04pm

Sat May 8, 11:05am

Sat May 8, 10:04am

Sat May 8, 9:04am

Sat May 8, 8:04am

Sat May 8, 7:04am

Sat May 8, 6:04am

Sat May 8, 5:04am

Sat May 8, 4:04am

Sat May 8, 3:04am

Sat May 8, 2:04am

Sat May 8, 1:05am

Sat May 8, 12:04am

Fri May 7, 11:04pm

Fri May 7, 10:05pm

Fri May 7, 9:04pm

Fri May 7, 8:04pm

Fri May 7, 7:05pm

Fri May 7, 6:04pm

Fri May 7, 5:05pm

Fri May 7, 4:04pm

Fri May 7, 3:04pm

Fri May 7, 2:05pm

Fri May 7, 1:04pm

Fri May 7, 12:04pm

Fri May 7, 11:05am

Fri May 7, 10:04am

Fri May 7, 9:04am

Fri May 7, 8:05am

Fri May 7, 7:04am

Fri May 7, 6:04am

Fri May 7, 5:04am

Fri May 7, 4:04am

Fri May 7, 3:04am

Fri May 7, 2:05am

Fri May 7, 1:04am

Fri May 7, 12:05am

Thu May 6, 11:04pm

Thu May 6, 10:04pm

Thu May 6, 9:05pm

Thu May 6, 8:04pm

Thu May 6, 7:04pm

Thu May 6, 6:04pm

Thu May 6, 5:05pm

Thu May 6, 4:04pm

Thu May 6, 3:04pm

Thu May 6, 2:05pm

Thu May 6, 1:04pm

Thu May 6, 12:04pm

Thu May 6, 11:04am

Thu May 6, 10:04am

Thu May 6, 9:04am

Thu May 6, 8:04am

Thu May 6, 7:04am

Thu May 6, 6:04am

Thu May 6, 5:04am

Thu May 6, 4:04am

Thu May 6, 3:04am

Thu May 6, 2:05am

Thu May 6, 1:04am

Thu May 6, 12:05am

Wed May 5, 11:04pm

Wed May 5, 10:04pm

Wed May 5, 9:05pm

Wed May 5, 8:04pm

Wed May 5, 7:05pm

Wed May 5, 6:04pm

Wed May 5, 5:04pm

Wed May 5, 4:04pm

Wed May 5, 3:04pm

Wed May 5, 2:05pm

Wed May 5, 1:05pm

Wed May 5, 12:04pm

Wed May 5, 11:05am

Wed May 5, 10:04am

Wed May 5, 9:04am

Wed May 5, 8:04am

Wed May 5, 7:04am

Wed May 5, 6:05am

Wed May 5, 5:04am

Wed May 5, 4:04am

Meta data:

ID: 0c0ae2a9-d19f-4340-9d49-ee24b5a40b3c
Link: https://api.weather.gov/products/0c0ae2a9-d19f-4340-9d49-ee24b5a40b3c